Time,TemperatureF,DewpointF,PressureIn,WindDirection,WindDirectionDegrees,WindSpeedMPH,WindSpeedGustMPH,Humidity,HourlyPrecipIn,Conditions,Clouds,dailyrainin,SoftwareType,DateUTC
2013-08-16 00:00:00,54.7,50.9,30.03,ENE,75,0.0,0.0,87,0.00,,,0.00,WUHU216DAVISVP2,2013-08-16 04:00:00,
2013-08-16 00:01:00,54.6,50.8,30.03,ENE,75,0.0,0.0,87,0.00,,,0.00,WUHU216DAVISVP2,2013-08-16 04:01:00,
2013-08-16 00:06:00,54.3,50.8,30.03,ENE,75,0.0,0.0,88,0.00,,,0.00,WUHU216DAVISVP2,2013-08-16 04:06:00,
2013-08-16 00:11:00,54.1,50.9,30.03,ENE,75,0.0,0.0,89,0.00,,,0.00,WUHU216DAVISVP2,2013-08-16 04:11:00,
2013-08-16 00:16:00,54.0,51.1,30.03,ENE,75,0.0,0.0,90,0.00,,,0.00,WUHU216DAVISVP2,2013-08-16 04:16:00,
2013-08-16 00:21:00,53.8,50.9,30.03,ENE,75,0.0,0.0,90,0.00,,,0.00,WUHU216DAVISVP2,2013-08-16 04:21:00,
2013-08-16 00:26:00,53.6,50.7,30.03,ENE,75,0.0,0.0,90,0.00,,,0.00,WUHU216DAVISVP2,2013-08-16 04:26:00,
2013-08-16 00:31:00,53.4,50.5,30.03,ENE,75,0.0,0.0,90,0.00,,,0.00,WUHU216DAVISVP2,2013-08-16 04:31:00,
2013-08-16 00:36:00,53.3,50.7,30.03,ENE,75,0.0,0.0,91,0.00,,,0.00,WUHU216DAVISVP2,2013-08-16 04:36:00,
2013-08-16 00:41:00,53.2,50.9,30.03,ENE,75,0.0,0.0,92,0.00,,,0.00,WUHU216DAVISVP2,2013-08-16 04:41:00,
2013-08-16 00:46:00,53.4,51.1,30.03,ENE,75,0.0,0.0,92,0.00,,,0.00,WUHU216DAVISVP2,2013-08-16 04:46:00,
2013-08-16 00:51:00,53.4,50.8,30.03,ENE,75,0.0,0.0,91,0.00,,,0.00,WUHU216DAVISVP2,2013-08-16 04:51:00,
2013-08-16 00:56:00,53.1,50.5,30.03,ENE,75,0.0,0.0,91,0.00,,,0.00,WUHU216DAVISVP2,2013-08-16 04:56:00,
2013-08-16 01:01:00,52.8,50.5,30.03,ENE,75,0.0,0.0,92,0.00,,,0.00,WUHU216DAVISVP2,2013-08-16 05:01:00,
2013-08-16 01:06:00,52.8,50.8,30.03,ENE,75,0.0,0.0,93,0.00,,,0.00,WUHU216DAVISVP2,2013-08-16 05:06:00,
2013-08-16 01:11:00,53.0,51.0,30.03,ENE,75,0.0,0.0,93,0.00,,,0.00,WUHU216DAVISVP2,2013-08-16 05:11:00,
2013-08-16 01:16:00,52.7,50.4,30.03,ENE,75,0.0,0.0,92,0.00,,,0.00,WUHU216DAVISVP2,2013-08-16 05:16:00,
2013-08-16 01:17:00,52.5,50.2,30.03,ENE,75,0.0,0.0,92,0.00,,,0.00,WUHU216DAVISVP2,2013-08-16 05:17:00,
2013-08-16 01:19:00,52.3,50.0,30.03,ENE,75,0.0,0.0,92,0.00,,,0.00,WUHU216DAVISVP2,2013-08-16 05:19:00,
2013-08-16 01:24:00,52.1,50.1,30.04,ENE,75,0.0,0.0,93,0.00,,,0.00,WUHU216DAVISVP2,2013-08-16 05:24:00,
2013-08-16 01:29:00,52.0,50.3,30.04,ENE,75,0.0,0.0,94,0.00,,,0.00,WUHU216DAVISVP2,2013-08-16 05:29:00,
2013-08-16 01:34:00,51.9,50.2,30.03,ENE,75,0.0,0.0,94,0.00,,,0.00,WUHU216DAVISVP2,2013-08-16 05:34:00,
2013-08-16 01:39:00,51.8,50.1,30.04,ENE,75,0.0,0.0,94,0.00,,,0.00,WUHU216DAVISVP2,2013-08-16 05:39:00,
2013-08-16 01:44:00,51.5,50.1,30.04,ENE,75,0.0,0.0,95,0.00,,,0.00,WUHU216DAVISVP2,2013-08-16 05:44:00,
2013-08-16 01:49:00,51.5,50.1,30.04,ENE,75,0.0,0.0,95,0.00,,,0.00,WUHU216DAVISVP2,2013-08-16 05:49:00,
2013-08-16 01:54:00,51.4,50.0,30.03,ENE,75,0.0,0.0,95,0.00,,,0.00,WUHU216DAVISVP2,2013-08-16 05:54:00,
2013-08-16 01:59:00,51.4,50.3,30.03,ENE,75,0.0,0.0,96,0.00,,,0.00,WUHU216DAVISVP2,2013-08-16 05:59:00,
2013-08-16 02:04:00,51.4,50.3,30.03,ENE,75,0.0,0.0,96,0.00,,,0.00,WUHU216DAVISVP2,2013-08-16 06:04:00,
2013-08-16 02:09:00,51.3,50.2,30.03,ENE,75,0.0,0.0,96,0.00,,,0.00,WUHU216DAVISVP2,2013-08-16 06:09:00,
2013-08-16 02:14:00,51.3,50.2,30.04,ENE,75,0.0,0.0,96,0.00,,,0.00,WUHU216DAVISVP2,2013-08-16 06:14:00,
2013-08-16 02:19:00,51.1,50.0,30.04,ENE,75,0.0,0.0,96,0.00,,,0.00,WUHU216DAVISVP2,2013-08-16 06:19:00,
2013-08-16 02:24:00,51.1,50.0,30.04,ENE,75,0.0,0.0,96,0.00,,,0.00,WUHU216DAVISVP2,2013-08-16 06:24:00,
2013-08-16 02:29:00,50.9,49.8,30.03,ENE,75,0.0,0.0,96,0.00,,,0.00,WUHU216DAVISVP2,2013-08-16 06:29:00,
2013-08-16 02:34:00,50.8,49.7,30.04,ENE,75,0.0,0.0,96,0.00,,,0.00,WUHU216DAVISVP2,2013-08-16 06:34:00,
2013-08-16 02:39:00,50.8,49.7,30.04,ENE,75,0.0,0.0,96,0.00,,,0.00,WUHU216DAVISVP2,2013-08-16 06:39:00,
2013-08-16 02:44:00,50.8,49.9,30.03,ENE,75,0.0,0.0,97,0.00,,,0.00,WUHU216DAVISVP2,2013-08-16 06:44:00,
2013-08-16 02:49:00,50.6,49.7,30.03,ENE,75,0.0,0.0,97,0.00,,,0.00,WUHU216DAVISVP2,2013-08-16 06:49:00,
2013-08-16 02:54:00,50.5,49.7,30.03,ENE,75,0.0,0.0,97,0.00,,,0.00,WUHU216DAVISVP2,2013-08-16 06:54:00,
2013-08-16 02:59:00,50.6,49.8,30.04,ENE,75,0.0,0.0,97,0.00,,,0.00,WUHU216DAVISVP2,2013-08-16 06:59:00,
2013-08-16 03:04:00,50.8,50.0,30.03,ENE,75,0.0,0.0,97,0.00,,,0.00,WUHU216DAVISVP2,2013-08-16 07:04:00,
2013-08-16 03:09:00,50.8,50.0,30.04,ENE,75,0.0,0.0,97,0.00,,,0.00,WUHU216DAVISVP2,2013-08-16 07:09:00,
2013-08-16 03:14:00,50.5,49.7,30.04,ENE,75,0.0,0.0,97,0.00,,,0.00,WUHU216DAVISVP2,2013-08-16 07:14:00,
2013-08-16 03:19:00,50.1,49.3,30.04,ENE,75,0.0,0.0,97,0.00,,,0.00,WUHU216DAVISVP2,2013-08-16 07:19:00,
2013-08-16 03:24:00,49.9,49.1,30.04,ENE,75,0.0,0.0,97,0.00,,,0.00,WUHU216DAVISVP2,2013-08-16 07:24:00,
2013-08-16 03:29:00,50.1,49.3,30.04,ENE,75,0.0,0.0,97,0.00,,,0.00,WUHU216DAVISVP2,2013-08-16 07:29:00,
2013-08-16 03:34:00,49.7,48.9,30.04,ENE,75,0.0,0.0,97,0.00,,,0.00,WUHU216DAVISVP2,2013-08-16 07:34:00,
2013-08-16 03:39:00,49.4,48.6,30.04,ENE,75,0.0,0.0,97,0.00,,,0.00,WUHU216DAVISVP2,2013-08-16 07:39:00,
2013-08-16 03:44:00,49.2,48.4,30.04,ENE,75,0.0,0.0,97,0.00,,,0.00,WUHU216DAVISVP2,2013-08-16 07:44:00,
2013-08-16 03:49:00,49.2,48.4,30.04,ENE,75,0.0,0.0,97,0.00,,,0.00,WUHU216DAVISVP2,2013-08-16 07:49:00,
2013-08-16 03:54:00,49.4,48.8,30.04,ENE,75,0.0,0.0,98,0.00,,,0.00,WUHU216DAVISVP2,2013-08-16 07:54:00,
2013-08-16 03:59:00,49.3,48.5,30.04,ENE,75,0.0,0.0,97,0.00,,,0.00,WUHU216DAVISVP2,2013-08-16 07:59:00,
2013-08-16 04:04:00,49.1,48.3,30.04,ENE,75,0.0,0.0,97,0.00,,,0.00,WUHU216DAVISVP2,2013-08-16 08:04:00,
2013-08-16 04:09:00,49.0,48.2,30.04,ENE,72,0.0,0.0,97,0.00,,,0.00,WUHU216DAVISVP2,2013-08-16 08:09:00,
2013-08-16 04:14:00,48.9,48.1,30.04,ENE,72,0.0,0.0,97,0.00,,,0.00,WUHU216DAVISVP2,2013-08-16 08:14:00,
2013-08-16 04:19:00,49.1,48.5,30.04,ENE,72,0.0,0.0,98,0.00,,,0.00,WUHU216DAVISVP2,2013-08-16 08:19:00,
2013-08-16 04:24:00,49.0,48.4,30.04,ENE,72,0.0,0.0,98,0.00,,,0.00,WUHU216DAVISVP2,2013-08-16 08:24:00,
2013-08-16 04:29:00,49.0,48.4,30.04,ENE,72,0.0,0.0,98,0.00,,,0.00,WUHU216DAVISVP2,2013-08-16 08:29:00,
2013-08-16 04:34:00,49.0,48.4,30.04,ENE,72,0.0,0.0,98,0.00,,,0.00,WUHU216DAVISVP2,2013-08-16 08:34:00,
2013-08-16 04:39:00,48.9,48.3,30.04,ENE,72,0.0,0.0,98,0.00,,,0.00,WUHU216DAVISVP2,2013-08-16 08:39:00,
2013-08-16 04:44:00,49.0,48.5,30.04,ENE,72,0.0,0.0,98,0.00,,,0.00,WUHU216DAVISVP2,2013-08-16 08:44:00,
2013-08-16 04:49:00,48.7,47.9,30.04,ENE,72,0.0,0.0,97,0.00,,,0.00,WUHU216DAVISVP2,2013-08-16 08:49:00,
2013-08-16 04:54:00,48.6,47.8,30.04,ENE,72,0.0,0.0,97,0.00,,,0.00,WUHU216DAVISVP2,2013-08-16 08:54:00,
2013-08-16 04:59:00,48.3,47.5,30.04,ENE,72,0.0,0.0,97,0.00,,,0.00,WUHU216DAVISVP2,2013-08-16 08:59:00,
2013-08-16 05:04:00,48.1,47.3,30.04,ENE,72,0.0,0.0,97,0.00,,,0.00,WUHU216DAVISVP2,2013-08-16 09:04:00,
2013-08-16 05:09:00,48.1,47.6,30.04,ENE,72,0.0,0.0,98,0.00,,,0.00,WUHU216DAVISVP2,2013-08-16 09:09:00,
2013-08-16 05:14:00,48.0,47.4,30.04,ENE,72,0.0,0.0,98,0.00,,,0.00,WUHU216DAVISVP2,2013-08-16 09:14:00,
2013-08-16 05:19:00,47.9,47.3,30.04,ENE,72,0.0,0.0,98,0.00,,,0.00,WUHU216DAVISVP2,2013-08-16 09:19:00,
2013-08-16 05:24:00,47.8,47.2,30.04,ENE,72,0.0,0.0,98,0.00,,,0.00,WUHU216DAVISVP2,2013-08-16 09:24:00,
2013-08-16 05:29:00,47.8,47.2,30.04,ENE,72,0.0,0.0,98,0.00,,,0.00,WUHU216DAVISVP2,2013-08-16 09:29:00,
2013-08-16 05:34:00,47.7,47.1,30.04,ENE,72,0.0,0.0,98,0.00,,,0.00,WUHU216DAVISVP2,2013-08-16 09:34:00,
2013-08-16 05:39:00,48.1,47.5,30.05,ENE,72,0.0,0.0,98,0.00,,,0.00,WUHU216DAVISVP2,2013-08-16 09:39:00,
2013-08-16 05:44:00,48.3,47.7,30.05,ENE,73,0.0,0.0,98,0.00,,,0.00,WUHU216DAVISVP2,2013-08-16 09:44:00,
2013-08-16 05:49:00,48.5,47.9,30.05,ENE,74,0.0,0.0,98,0.00,,,0.00,WUHU216DAVISVP2,2013-08-16 09:49:00,
2013-08-16 05:54:00,48.7,48.4,30.05,ENE,72,0.0,0.0,99,0.00,,,0.00,WUHU216DAVISVP2,2013-08-16 09:54:00,
2013-08-16 05:59:00,48.6,48.0,30.05,ENE,72,0.0,0.0,98,0.00,,,0.00,WUHU216DAVISVP2,2013-08-16 09:59:00,
2013-08-16 06:04:00,48.5,47.9,30.05,ENE,72,0.0,0.0,98,0.00,,,0.00,WUHU216DAVISVP2,2013-08-16 10:04:00,
2013-08-16 06:09:00,48.4,47.8,30.05,ENE,73,0.0,0.0,98,0.00,,,0.00,WUHU216DAVISVP2,2013-08-16 10:09:00,
2013-08-16 06:14:00,48.2,47.6,30.05,ENE,72,0.0,0.0,98,0.00,,,0.00,WUHU216DAVISVP2,2013-08-16 10:14:00,
2013-08-16 06:19:00,47.9,47.3,30.05,ENE,72,0.0,0.0,98,0.00,,,0.00,WUHU216DAVISVP2,2013-08-16 10:19:00,
2013-08-16 06:24:00,47.7,47.1,30.05,ENE,72,0.0,0.0,98,0.00,,,0.00,WUHU216DAVISVP2,2013-08-16 10:24:00,
2013-08-16 06:29:00,47.9,47.3,30.05,ENE,68,0.0,0.0,98,0.00,,,0.00,WUHU216DAVISVP2,2013-08-16 10:29:00,
2013-08-16 06:34:00,47.9,47.3,30.06,ENE,68,0.0,0.0,98,0.00,,,0.00,WUHU216DAVISVP2,2013-08-16 10:34:00,
2013-08-16 06:39:00,47.7,47.1,30.06,ENE,68,0.0,0.0,98,0.00,,,0.00,WUHU216DAVISVP2,2013-08-16 10:39:00,
2013-08-16 06:44:00,47.7,47.1,30.06,ENE,68,0.0,0.0,98,0.00,,,0.00,WUHU216DAVISVP2,2013-08-16 10:44:00,
2013-08-16 06:49:00,47.9,47.6,30.06,ENE,68,0.0,0.0,99,0.00,,,0.00,WUHU216DAVISVP2,2013-08-16 10:49:00,
2013-08-16 06:54:00,47.8,47.2,30.06,ENE,68,0.0,0.0,98,0.00,,,0.00,WUHU216DAVISVP2,2013-08-16 10:54:00,
2013-08-16 06:59:00,47.7,47.1,30.06,ENE,68,0.0,0.0,98,0.00,,,0.00,WUHU216DAVISVP2,2013-08-16 10:59:00,
2013-08-16 07:04:00,47.6,47.0,30.06,ENE,68,0.0,0.0,98,0.00,,,0.00,WUHU216DAVISVP2,2013-08-16 11:04:00,
2013-08-16 07:09:00,47.5,46.9,30.06,ENE,68,0.0,0.0,98,0.00,,,0.00,WUHU216DAVISVP2,2013-08-16 11:09:00,
2013-08-16 07:14:00,47.5,46.9,30.06,ENE,68,0.0,0.0,98,0.00,,,0.00,WUHU216DAVISVP2,2013-08-16 11:14:00,
2013-08-16 07:19:00,47.6,47.3,30.06,ENE,68,0.0,0.0,99,0.00,,,0.00,WUHU216DAVISVP2,2013-08-16 11:19:00,
2013-08-16 07:24:00,47.9,47.6,30.06,ENE,68,0.0,0.0,99,0.00,,,0.00,WUHU216DAVISVP2,2013-08-16 11:24:00,
2013-08-16 07:29:00,48.1,47.8,30.06,ENE,68,0.0,0.0,99,0.00,,,0.00,WUHU216DAVISVP2,2013-08-16 11:29:00,
2013-08-16 07:34:00,48.5,48.2,30.06,ENE,68,0.0,0.0,99,0.00,,,0.00,WUHU216DAVISVP2,2013-08-16 11:34:00,
2013-08-16 07:39:00,49.0,48.7,30.06,ENE,68,0.0,0.0,99,0.00,,,0.00,WUHU216DAVISVP2,2013-08-16 11:39:00,
2013-08-16 07:44:00,49.7,49.4,30.07,ENE,70,0.0,0.0,99,0.00,,,0.00,WUHU216DAVISVP2,2013-08-16 11:44:00,
2013-08-16 07:49:00,50.2,49.9,30.07,ENE,70,0.0,0.0,99,0.00,,,0.00,WUHU216DAVISVP2,2013-08-16 11:49:00,
2013-08-16 07:54:00,50.6,50.3,30.07,ENE,68,0.0,0.0,99,0.00,,,0.00,WUHU216DAVISVP2,2013-08-16 11:54:00,
2013-08-16 07:59:00,51.1,50.8,30.07,ENE,68,0.0,0.0,99,0.00,,,0.00,WUHU216DAVISVP2,2013-08-16 11:59:00,
2013-08-16 08:04:00,51.5,51.2,30.07,ENE,70,0.0,0.0,99,0.00,,,0.00,WUHU216DAVISVP2,2013-08-16 12:04:00,
2013-08-16 08:09:00,51.9,51.6,30.07,ENE,69,0.0,0.0,99,0.00,,,0.00,WUHU216DAVISVP2,2013-08-16 12:09:00,
2013-08-16 08:14:00,52.4,52.1,30.07,ENE,70,0.0,0.0,99,0.00,,,0.00,WUHU216DAVISVP2,2013-08-16 12:14:00,
2013-08-16 08:19:00,53.4,53.4,30.07,NNW,346,0.0,0.0,100,0.00,,,0.00,WUHU216DAVISVP2,2013-08-16 12:19:00,
2013-08-16 08:24:00,54.3,54.3,30.08,NNW,346,0.0,0.0,100,0.00,,,0.00,WUHU216DAVISVP2,2013-08-16 12:24:00,
2013-08-16 08:29:00,55.2,55.2,30.08,NNW,346,0.0,0.0,100,0.00,,,0.00,WUHU216DAVISVP2,2013-08-16 12:29:00,
2013-08-16 08:34:00,56.4,56.4,30.08,NNW,346,0.0,0.0,100,0.00,,,0.00,WUHU216DAVISVP2,2013-08-16 12:34:00,
2013-08-16 08:39:00,57.2,57.2,30.08,NW,315,0.0,0.0,100,0.00,,,0.00,WUHU216DAVISVP2,2013-08-16 12:39:00,
2013-08-16 08:44:00,58.0,58.0,30.08,NW,315,0.0,0.0,100,0.00,,,0.00,WUHU216DAVISVP2,2013-08-16 12:44:00,
2013-08-16 08:49:00,58.3,58.3,30.08,NW,308,2.0,3.0,100,0.00,,,0.00,WUHU216DAVISVP2,2013-08-16 12:49:00,
2013-08-16 08:54:00,59.1,59.1,30.08,NW,313,0.0,3.0,100,0.00,,,0.00,WUHU216DAVISVP2,2013-08-16 12:54:00,
2013-08-16 08:59:00,60.1,59.8,30.08,NW,319,1.0,3.0,99,0.00,,,0.00,WUHU216DAVISVP2,2013-08-16 12:59:00,
2013-08-16 09:04:00,60.8,58.7,30.08,WNW,296,0.0,3.0,93,0.00,,,0.00,WUHU216DAVISVP2,2013-08-16 13:04:00,
2013-08-16 09:09:00,62.0,59.6,30.08,NNW,331,1.0,3.0,92,0.00,,,0.00,WUHU216DAVISVP2,2013-08-16 13:09:00,
2013-08-16 09:14:00,62.6,59.0,30.08,WNW,291,0.0,4.0,88,0.00,,,0.00,WUHU216DAVISVP2,2013-08-16 13:14:00,
2013-08-16 09:19:00,63.3,60.0,30.08,West,280,0.0,4.0,89,0.00,,,0.00,WUHU216DAVISVP2,2013-08-16 13:19:00,
2013-08-16 09:24:00,64.1,59.5,30.08,NW,307,0.0,4.0,85,0.00,,,0.00,WUHU216DAVISVP2,2013-08-16 13:24:00,
2013-08-16 09:29:00,64.6,59.4,30.08,WNW,283,2.0,4.0,83,0.00,,,0.00,WUHU216DAVISVP2,2013-08-16 13:29:00,
2013-08-16 09:34:00,64.4,58.8,30.08,WNW,285,1.0,4.0,82,0.00,,,0.00,WUHU216DAVISVP2,2013-08-16 13:34:00,
2013-08-16 09:39:00,64.9,59.6,30.08,WSW,257,0.0,4.0,83,0.00,,,0.00,WUHU216DAVISVP2,2013-08-16 13:39:00,
2013-08-16 09:44:00,65.6,59.3,30.08,NNE,30,2.0,4.0,80,0.00,,,0.00,WUHU216DAVISVP2,2013-08-16 13:44:00,
2013-08-16 09:49:00,65.8,59.5,30.08,NW,304,2.0,4.0,80,0.00,,,0.00,WUHU216DAVISVP2,2013-08-16 13:49:00,
2013-08-16 09:54:00,66.2,59.1,30.08,NW,319,3.0,4.0,78,0.00,,,0.00,WUHU216DAVISVP2,2013-08-16 13:54:00,
2013-08-16 09:59:00,66.6,59.5,30.08,WNW,285,1.0,4.0,78,0.00,,,0.00,WUHU216DAVISVP2,2013-08-16 13:59:00,
2013-08-16 10:04:00,67.1,59.3,30.08,ENE,58,1.0,4.0,76,0.00,,,0.00,WUHU216DAVISVP2,2013-08-16 14:04:00,
2013-08-16 10:09:00,67.3,58.5,30.08,NNE,32,2.0,4.0,73,0.00,,,0.00,WUHU216DAVISVP2,2013-08-16 14:09:00,
2013-08-16 10:14:00,67.7,59.3,30.08,NE,53,0.0,4.0,74,0.00,,,0.00,WUHU216DAVISVP2,2013-08-16 14:14:00,
2013-08-16 10:19:00,68.2,59.4,30.08,NNW,342,0.0,4.0,73,0.00,,,0.00,WUHU216DAVISVP2,2013-08-16 14:19:00,
2013-08-16 10:24:00,68.8,58.8,30.08,NNE,25,2.0,4.0,70,0.00,,,0.00,WUHU216DAVISVP2,2013-08-16 14:24:00,
2013-08-16 10:29:00,69.4,59.4,30.08,NW,312,0.0,3.0,70,0.00,,,0.00,WUHU216DAVISVP2,2013-08-16 14:29:00,
2013-08-16 10:34:00,69.9,59.0,30.08,WNW,294,0.0,3.0,68,0.00,,,0.00,WUHU216DAVISVP2,2013-08-16 14:34:00,
2013-08-16 10:39:00,70.6,59.3,30.08,North,351,0.0,4.0,67,0.00,,,0.00,WUHU216DAVISVP2,2013-08-16 14:39:00,
2013-08-16 10:44:00,70.5,58.8,30.08,NNE,25,2.0,4.0,66,0.00,,,0.00,WUHU216DAVISVP2,2013-08-16 14:44:00,
2013-08-16 10:49:00,70.3,59.0,30.08,WNW,302,4.0,4.0,67,0.00,,,0.00,WUHU216DAVISVP2,2013-08-16 14:49:00,
2013-08-16 10:54:00,70.3,58.6,30.08,NNW,331,1.0,4.0,66,0.00,,,0.00,WUHU216DAVISVP2,2013-08-16 14:54:00,
2013-08-16 10:59:00,70.9,59.2,30.08,NNE,22,2.0,4.0,66,0.00,,,0.00,WUHU216DAVISVP2,2013-08-16 14:59:00,
2013-08-16 11:04:00,71.1,58.9,30.09,NNW,341,0.0,4.0,65,0.00,,,0.00,WUHU216DAVISVP2,2013-08-16 15:04:00,
2013-08-16 11:09:00,71.9,59.3,30.09,NW,310,2.0,4.0,64,0.00,,,0.00,WUHU216DAVISVP2,2013-08-16 15:09:00,
2013-08-16 11:14:00,71.7,59.5,30.08,NNE,13,1.0,5.0,65,0.00,,,0.00,WUHU216DAVISVP2,2013-08-16 15:14:00,
2013-08-16 11:19:00,71.4,57.9,30.08,NNW,333,0.0,5.0,62,0.00,,,0.00,WUHU216DAVISVP2,2013-08-16 15:19:00,
2013-08-16 11:24:00,71.5,58.4,30.08,ENE,63,2.0,5.0,63,0.00,,,0.00,WUHU216DAVISVP2,2013-08-16 15:24:00,
2013-08-16 11:29:00,72.1,58.6,30.08,NNW,330,3.0,5.0,62,0.00,,,0.00,WUHU216DAVISVP2,2013-08-16 15:29:00,
2013-08-16 11:34:00,72.8,59.2,30.08,SW,227,1.0,4.0,62,0.00,,,0.00,WUHU216DAVISVP2,2013-08-16 15:34:00,
2013-08-16 11:39:00,73.3,57.8,30.08,SSW,194,0.0,3.0,58,0.00,,,0.00,WUHU216DAVISVP2,2013-08-16 15:39:00,
2013-08-16 11:44:00,73.8,57.8,30.08,NNW,346,3.0,5.0,57,0.00,,,0.00,WUHU216DAVISVP2,2013-08-16 15:44:00,
2013-08-16 11:49:00,73.3,57.3,30.08,WNW,298,0.0,5.0,57,0.00,,,0.00,WUHU216DAVISVP2,2013-08-16 15:49:00,
2013-08-16 11:54:00,73.7,56.7,30.08,NNE,16,4.0,7.0,55,0.00,,,0.00,WUHU216DAVISVP2,2013-08-16 15:54:00,
2013-08-16 11:59:00,73.3,56.8,30.08,NNE,18,1.0,7.0,56,0.00,,,0.00,WUHU216DAVISVP2,2013-08-16 15:59:00,
2013-08-16 12:04:00,73.9,56.9,30.08,North,349,4.0,7.0,55,0.00,,,0.00,WUHU216DAVISVP2,2013-08-16 16:04:00,
2013-08-16 12:09:00,73.8,54.1,30.08,NE,46,1.0,7.0,50,0.00,,,0.00,WUHU216DAVISVP2,2013-08-16 16:09:00,
2013-08-16 12:14:00,74.0,54.8,30.08,North,351,2.0,6.0,51,0.00,,,0.00,WUHU216DAVISVP2,2013-08-16 16:14:00,
2013-08-16 12:19:00,74.3,54.0,30.08,NW,325,2.0,6.0,49,0.00,,,0.00,WUHU216DAVISVP2,2013-08-16 16:19:00,
2013-08-16 12:24:00,74.8,56.7,30.08,WSW,257,0.0,5.0,53,0.00,,,0.00,WUHU216DAVISVP2,2013-08-16 16:24:00,
2013-08-16 12:29:00,75.3,56.6,30.08,West,264,1.0,6.0,52,0.00,,,0.00,WUHU216DAVISVP2,2013-08-16 16:29:00,
2013-08-16 12:34:00,74.7,54.3,30.08,SSW,194,1.0,7.0,49,0.00,,,0.00,WUHU216DAVISVP2,2013-08-16 16:34:00,
2013-08-16 12:39:00,74.6,54.7,30.08,ENE,63,0.0,7.0,50,0.00,,,0.00,WUHU216DAVISVP2,2013-08-16 16:39:00,
2013-08-16 12:44:00,75.3,54.8,30.08,NW,309,3.0,7.0,49,0.00,,,0.00,WUHU216DAVISVP2,2013-08-16 16:44:00,
2013-08-16 12:49:00,75.4,54.9,30.08,NNW,330,5.0,7.0,49,0.00,,,0.00,WUHU216DAVISVP2,2013-08-16 16:49:00,
2013-08-16 12:54:00,75.1,54.7,30.08,WSW,243,2.0,7.0,49,0.00,,,0.00,WUHU216DAVISVP2,2013-08-16 16:54:00,
2013-08-16 12:59:00,75.5,55.6,30.08,NW,309,3.0,7.0,50,0.00,,,0.00,WUHU216DAVISVP2,2013-08-16 16:59:00,
2013-08-16 13:04:00,75.8,54.2,30.08,SSE,162,1.0,6.0,47,0.00,,,0.00,WUHU216DAVISVP2,2013-08-16 17:04:00,
2013-08-16 13:09:00,76.3,54.6,30.08,NNE,29,0.0,4.0,47,0.00,,,0.00,WUHU216DAVISVP2,2013-08-16 17:09:00,
2013-08-16 13:14:00,76.3,53.4,30.08,NE,53,1.0,5.0,45,0.00,,,0.00,WUHU216DAVISVP2,2013-08-16 17:14:00,
2013-08-16 13:19:00,76.8,52.6,30.08,SW,221,1.0,5.0,43,0.00,,,0.00,WUHU216DAVISVP2,2013-08-16 17:19:00,
2013-08-16 13:24:00,77.0,53.4,30.08,NW,310,2.0,6.0,44,0.00,,,0.00,WUHU216DAVISVP2,2013-08-16 17:24:00,
2013-08-16 13:29:00,76.9,52.7,30.08,SSE,148,3.0,6.0,43,0.00,,,0.00,WUHU216DAVISVP2,2013-08-16 17:29:00,
2013-08-16 13:34:00,77.2,53.6,30.08,NW,307,2.0,6.0,44,0.00,,,0.00,WUHU216DAVISVP2,2013-08-16 17:34:00,
2013-08-16 13:39:00,77.0,53.4,30.08,SW,219,4.0,6.0,44,0.00,,,0.00,WUHU216DAVISVP2,2013-08-16 17:39:00,
2013-08-16 13:44:00,77.0,55.3,30.08,SW,219,1.0,6.0,47,0.00,,,0.00,WUHU216DAVISVP2,2013-08-16 17:44:00,
2013-08-16 13:49:00,77.2,53.6,30.08,West,269,0.0,6.0,44,0.00,,,0.00,WUHU216DAVISVP2,2013-08-16 17:49:00,
2013-08-16 13:54:00,77.1,54.1,30.08,ENE,67,0.0,6.0,45,0.00,,,0.00,WUHU216DAVISVP2,2013-08-16 17:54:00,
2013-08-16 13:59:00,77.6,53.3,30.07,ENE,68,2.0,6.0,43,0.00,,,0.00,WUHU216DAVISVP2,2013-08-16 17:59:00,
2013-08-16 14:04:00,77.6,53.9,30.08,WSW,255,1.0,6.0,44,0.00,,,0.00,WUHU216DAVISVP2,2013-08-16 18:04:00,
2013-08-16 14:09:00,78.4,54.0,30.08,NNW,336,0.0,4.0,43,0.00,,,0.00,WUHU216DAVISVP2,2013-08-16 18:09:00,
2013-08-16 14:14:00,78.2,53.2,30.08,NE,39,3.0,6.0,42,0.00,,,0.00,WUHU216DAVISVP2,2013-08-16 18:14:00,
2013-08-16 14:19:00,78.0,53.7,30.08,SW,214,7.0,7.0,43,0.00,,,0.00,WUHU216DAVISVP2,2013-08-16 18:19:00,
2013-08-16 14:24:00,78.2,52.5,30.08,SW,221,0.0,8.0,41,0.00,,,0.00,WUHU216DAVISVP2,2013-08-16 18:24:00,
2013-08-16 14:29:00,78.4,52.7,30.08,SW,233,4.0,8.0,41,0.00,,,0.00,WUHU216DAVISVP2,2013-08-16 18:29:00,
2013-08-16 14:34:00,78.6,53.5,30.07,SW,228,1.0,7.0,42,0.00,,,0.00,WUHU216DAVISVP2,2013-08-16 18:34:00,
2013-08-16 14:39:00,79.4,53.0,30.07,SSW,199,0.0,5.0,40,0.00,,,0.00,WUHU216DAVISVP2,2013-08-16 18:39:00,
2013-08-16 14:44:00,79.5,53.0,30.07,WSW,246,4.0,6.0,40,0.00,,,0.00,WUHU216DAVISVP2,2013-08-16 18:44:00,
2013-08-16 14:49:00,79.2,53.4,30.07,WNW,293,4.0,7.0,41,0.00,,,0.00,WUHU216DAVISVP2,2013-08-16 18:49:00,
2013-08-16 14:54:00,78.6,52.9,30.07,SSW,196,3.0,7.0,41,0.00,,,0.00,WUHU216DAVISVP2,2013-08-16 18:54:00,
2013-08-16 14:59:00,78.5,52.8,30.07,NW,316,4.0,11.0,41,0.00,,,0.00,WUHU216DAVISVP2,2013-08-16 18:59:00,
2013-08-16 15:04:00,78.4,53.4,30.07,WNW,294,3.0,11.0,42,0.00,,,0.00,WUHU216DAVISVP2,2013-08-16 19:04:00,
2013-08-16 15:09:00,78.6,52.2,30.07,WNW,300,1.0,11.0,40,0.00,,,0.00,WUHU216DAVISVP2,2013-08-16 19:09:00,
2013-08-16 15:14:00,79.0,53.9,30.07,NNW,346,0.0,11.0,42,0.00,,,0.00,WUHU216DAVISVP2,2013-08-16 19:14:00,
2013-08-16 15:19:00,79.4,52.2,30.07,SSW,211,3.0,9.0,39,0.00,,,0.00,WUHU216DAVISVP2,2013-08-16 19:19:00,
2013-08-16 15:24:00,79.2,53.5,30.07,NNW,340,3.0,9.0,41,0.00,,,0.00,WUHU216DAVISVP2,2013-08-16 19:24:00,
2013-08-16 15:29:00,79.3,53.5,30.07,WSW,238,1.0,9.0,41,0.00,,,0.00,WUHU216DAVISVP2,2013-08-16 19:29:00,
2013-08-16 15:34:00,79.5,53.7,30.06,West,261,2.0,9.0,41,0.00,,,0.00,WUHU216DAVISVP2,2013-08-16 19:34:00,
2013-08-16 15:39:00,80.0,54.1,30.06,NW,319,0.0,9.0,41,0.00,,,0.00,WUHU216DAVISVP2,2013-08-16 19:39:00,
2013-08-16 15:44:00,79.6,51.8,30.06,NNW,329,3.0,7.0,38,0.00,,,0.00,WUHU216DAVISVP2,2013-08-16 19:44:00,
2013-08-16 15:49:00,79.2,53.4,30.06,NW,322,1.0,7.0,41,0.00,,,0.00,WUHU216DAVISVP2,2013-08-16 19:49:00,
2013-08-16 15:54:00,79.4,53.6,30.06,WNW,301,3.0,7.0,41,0.00,,,0.00,WUHU216DAVISVP2,2013-08-16 19:54:00,
2013-08-16 15:59:00,79.6,53.1,30.06,WSW,245,1.0,7.0,40,0.00,,,0.00,WUHU216DAVISVP2,2013-08-16 19:59:00,
2013-08-16 16:04:00,80.4,53.8,30.06,NE,40,3.0,7.0,40,0.00,,,0.00,WUHU216DAVISVP2,2013-08-16 20:04:00,
2013-08-16 16:09:00,80.3,53.0,30.06,NNW,330,3.0,5.0,39,0.00,,,0.00,WUHU216DAVISVP2,2013-08-16 20:09:00,
2013-08-16 16:14:00,80.4,54.5,30.06,SW,221,1.0,5.0,41,0.00,,,0.00,WUHU216DAVISVP2,2013-08-16 20:14:00,
2013-08-16 16:19:00,80.6,54.0,30.06,SE,131,0.0,5.0,40,0.00,,,0.00,WUHU216DAVISVP2,2013-08-16 20:19:00,
2013-08-16 16:24:00,80.9,53.6,30.06,West,278,0.0,5.0,39,0.00,,,0.00,WUHU216DAVISVP2,2013-08-16 20:24:00,
2013-08-16 16:29:00,80.7,53.4,30.06,NNW,340,3.0,5.0,39,0.00,,,0.00,WUHU216DAVISVP2,2013-08-16 20:29:00,
2013-08-16 16:34:00,80.5,54.6,30.06,South,186,0.0,5.0,41,0.00,,,0.00,WUHU216DAVISVP2,2013-08-16 20:34:00,
2013-08-16 16:39:00,80.5,53.9,30.06,SW,229,3.0,5.0,40,0.00,,,0.00,WUHU216DAVISVP2,2013-08-16 20:39:00,
2013-08-16 16:44:00,78.5,52.8,30.06,SSW,197,2.0,8.0,41,0.00,,,0.00,WUHU216DAVISVP2,2013-08-16 20:44:00,
2013-08-16 16:49:00,78.7,53.0,30.06,East,100,0.0,8.0,41,0.00,,,0.00,WUHU216DAVISVP2,2013-08-16 20:49:00,
2013-08-16 16:54:00,79.5,53.1,30.06,WNW,297,1.0,7.0,40,0.00,,,0.00,WUHU216DAVISVP2,2013-08-16 20:54:00,
2013-08-16 16:59:00,79.7,53.2,30.06,WSW,253,1.0,5.0,40,0.00,,,0.00,WUHU216DAVISVP2,2013-08-16 20:59:00,
2013-08-16 17:04:00,79.5,53.0,30.06,SSW,210,4.0,6.0,40,0.00,,,0.00,WUHU216DAVISVP2,2013-08-16 21:04:00,
2013-08-16 17:09:00,79.7,53.2,30.06,South,191,1.0,6.0,40,0.00,,,0.00,WUHU216DAVISVP2,2013-08-16 21:09:00,
2013-08-16 17:14:00,79.9,51.9,30.06,WSW,248,2.0,8.0,38,0.00,,,0.00,WUHU216DAVISVP2,2013-08-16 21:14:00,
2013-08-16 17:19:00,79.6,52.4,30.06,West,267,1.0,8.0,39,0.00,,,0.00,WUHU216DAVISVP2,2013-08-16 21:19:00,
2013-08-16 17:24:00,79.9,51.9,30.06,SW,229,0.0,8.0,38,0.00,,,0.00,WUHU216DAVISVP2,2013-08-16 21:24:00,
2013-08-16 17:29:00,79.9,51.2,30.06,South,191,4.0,7.0,37,0.00,,,0.00,WUHU216DAVISVP2,2013-08-16 21:29:00,
2013-08-16 17:34:00,79.8,52.5,30.06,ESE,117,0.0,6.0,39,0.00,,,0.00,WUHU216DAVISVP2,2013-08-16 21:34:00,
2013-08-16 17:39:00,80.1,52.2,30.06,WNW,297,2.0,6.0,38,0.00,,,0.00,WUHU216DAVISVP2,2013-08-16 21:39:00,
2013-08-16 17:44:00,79.0,52.5,30.06,SSW,212,2.0,5.0,40,0.00,,,0.00,WUHU216DAVISVP2,2013-08-16 21:44:00,
2013-08-16 17:49:00,78.2,53.2,30.06,SW,233,2.0,4.0,42,0.00,,,0.00,WUHU216DAVISVP2,2013-08-16 21:49:00,
2013-08-16 17:54:00,78.2,53.2,30.06,West,259,0.0,3.0,42,0.00,,,0.00,WUHU216DAVISVP2,2013-08-16 21:54:00,
2013-08-16 17:59:00,78.3,52.0,30.06,SE,133,1.0,5.0,40,0.00,,,0.00,WUHU216DAVISVP2,2013-08-16 21:59:00,
2013-08-16 18:04:00,78.6,52.9,30.06,ESE,105,2.0,5.0,41,0.00,,,0.00,WUHU216DAVISVP2,2013-08-16 22:04:00,
2013-08-16 18:09:00,79.4,52.9,30.06,SW,215,0.0,5.0,40,0.00,,,0.00,WUHU216DAVISVP2,2013-08-16 22:09:00,
2013-08-16 18:14:00,79.7,52.5,30.06,East,86,0.0,5.0,39,0.00,,,0.00,WUHU216DAVISVP2,2013-08-16 22:14:00,
2013-08-16 18:19:00,80.1,52.1,30.06,SSE,148,2.0,4.0,38,0.00,,,0.00,WUHU216DAVISVP2,2013-08-16 22:19:00,
2013-08-16 18:24:00,79.9,51.2,30.06,South,171,1.0,3.0,37,0.00,,,0.00,WUHU216DAVISVP2,2013-08-16 22:24:00,
2013-08-16 18:29:00,80.1,52.1,30.06,West,269,1.0,3.0,38,0.00,,,0.00,WUHU216DAVISVP2,2013-08-16 22:29:00,
2013-08-16 18:34:00,79.7,52.5,30.06,NW,304,0.0,3.0,39,0.00,,,0.00,WUHU216DAVISVP2,2013-08-16 22:34:00,
2013-08-16 18:39:00,79.6,53.8,30.06,North,4,2.0,3.0,41,0.00,,,0.00,WUHU216DAVISVP2,2013-08-16 22:39:00,
2013-08-16 18:44:00,79.3,53.5,30.06,NW,310,4.0,5.0,41,0.00,,,0.00,WUHU216DAVISVP2,2013-08-16 22:44:00,
2013-08-16 18:49:00,78.6,52.9,30.06,NW,305,1.0,5.0,41,0.00,,,0.00,WUHU216DAVISVP2,2013-08-16 22:49:00,
2013-08-16 18:54:00,78.4,52.1,30.06,WNW,290,0.0,5.0,40,0.00,,,0.00,WUHU216DAVISVP2,2013-08-16 22:54:00,
2013-08-16 18:59:00,78.4,52.7,30.06,NW,304,2.0,5.0,41,0.00,,,0.00,WUHU216DAVISVP2,2013-08-16 22:59:00,
2013-08-16 19:04:00,78.1,52.4,30.06,NW,316,2.0,4.0,41,0.00,,,0.00,WUHU216DAVISVP2,2013-08-16 23:04:00,
2013-08-16 19:09:00,77.7,52.7,30.06,NW,318,0.0,4.0,42,0.00,,,0.00,WUHU216DAVISVP2,2013-08-16 23:09:00,
2013-08-16 19:14:00,77.5,53.2,30.07,WNW,300,2.0,4.0,43,0.00,,,0.00,WUHU216DAVISVP2,2013-08-16 23:14:00,
2013-08-16 19:19:00,77.1,52.8,30.06,NW,319,1.0,4.0,43,0.00,,,0.00,WUHU216DAVISVP2,2013-08-16 23:19:00,
2013-08-16 19:24:00,76.8,52.6,30.06,NW,323,2.0,4.0,43,0.00,,,0.00,WUHU216DAVISVP2,2013-08-16 23:24:00,
2013-08-16 19:29:00,76.6,53.7,30.06,NW,305,1.0,4.0,45,0.00,,,0.00,WUHU216DAVISVP2,2013-08-16 23:29:00,
2013-08-16 19:34:00,76.4,52.9,30.06,NW,326,1.0,4.0,44,0.00,,,0.00,WUHU216DAVISVP2,2013-08-16 23:34:00,
2013-08-16 19:39:00,76.2,53.3,30.06,NW,314,0.0,4.0,45,0.00,,,0.00,WUHU216DAVISVP2,2013-08-16 23:39:00,
2013-08-16 19:44:00,76.2,54.5,30.06,NW,308,0.0,4.0,47,0.00,,,0.00,WUHU216DAVISVP2,2013-08-16 23:44:00,
2013-08-16 19:49:00,76.0,54.3,30.06,NW,308,0.0,4.0,47,0.00,,,0.00,WUHU216DAVISVP2,2013-08-16 23:49:00,
2013-08-16 19:54:00,75.7,54.7,30.06,NW,308,0.0,3.0,48,0.00,,,0.00,WUHU216DAVISVP2,2013-08-16 23:54:00,
2013-08-16 19:59:00,75.3,54.3,30.06,NW,309,1.0,2.0,48,0.00,,,0.00,WUHU216DAVISVP2,2013-08-16 23:59:00,
2013-08-16 20:04:00,74.7,53.8,30.07,NW,319,1.0,2.0,48,0.00,,,0.00,WUHU216DAVISVP2,2013-08-17 00:04:00,
2013-08-16 20:09:00,74.2,53.9,30.07,NW,318,0.0,2.0,49,0.00,,,0.00,WUHU216DAVISVP2,2013-08-17 00:09:00,
2013-08-16 20:14:00,73.6,54.4,30.07,NW,318,0.0,2.0,51,0.00,,,0.00,WUHU216DAVISVP2,2013-08-17 00:14:00,
2013-08-16 20:19:00,73.1,55.1,30.07,NW,318,0.0,2.0,53,0.00,,,0.00,WUHU216DAVISVP2,2013-08-17 00:19:00,
2013-08-16 20:24:00,72.2,55.1,30.07,NW,318,0.0,2.0,55,0.00,,,0.00,WUHU216DAVISVP2,2013-08-17 00:24:00,
2013-08-16 20:29:00,71.5,55.6,30.07,NW,317,0.0,1.0,57,0.00,,,0.00,WUHU216DAVISVP2,2013-08-17 00:29:00,
2013-08-16 20:34:00,70.6,55.6,30.07,NW,318,0.0,0.0,59,0.00,,,0.00,WUHU216DAVISVP2,2013-08-17 00:34:00,
2013-08-16 20:39:00,68.9,56.8,30.07,East,79,0.0,5.0,65,0.00,,,0.00,WUHU216DAVISVP2,2013-08-17 00:39:00,
2013-08-16 20:44:00,68.4,57.2,30.07,East,84,0.0,5.0,67,0.00,,,0.00,WUHU216DAVISVP2,2013-08-17 00:44:00,
2013-08-16 20:49:00,68.2,57.8,30.07,East,85,0.0,4.0,69,0.00,,,0.00,WUHU216DAVISVP2,2013-08-17 00:49:00,
2013-08-16 20:54:00,67.9,58.3,30.07,East,81,0.0,4.0,71,0.00,,,0.00,WUHU216DAVISVP2,2013-08-17 00:54:00,
2013-08-16 20:59:00,67.7,58.9,30.08,ESE,121,1.0,2.0,73,0.00,,,0.00,WUHU216DAVISVP2,2013-08-17 00:59:00,
2013-08-16 21:04:00,67.8,59.3,30.08,ESE,103,0.0,2.0,74,0.00,,,0.00,WUHU216DAVISVP2,2013-08-17 01:04:00,
2013-08-16 21:09:00,67.6,59.2,30.08,ESE,103,0.0,2.0,74,0.00,,,0.00,WUHU216DAVISVP2,2013-08-17 01:09:00,
2013-08-16 21:14:00,67.2,59.1,30.08,ESE,103,0.0,2.0,75,0.00,,,0.00,WUHU216DAVISVP2,2013-08-17 01:14:00,
2013-08-16 21:19:00,66.7,59.0,30.08,ESE,103,0.0,1.0,76,0.00,,,0.00,WUHU216DAVISVP2,2013-08-17 01:19:00,
2013-08-16 21:24:00,66.2,58.9,30.08,ESE,103,0.0,0.0,77,0.00,,,0.00,WUHU216DAVISVP2,2013-08-17 01:24:00,
2013-08-16 21:29:00,65.7,58.7,30.08,ESE,103,0.0,0.0,78,0.00,,,0.00,WUHU216DAVISVP2,2013-08-17 01:29:00,
2013-08-16 21:34:00,65.2,58.5,30.08,ESE,103,0.0,1.0,79,0.00,,,0.00,WUHU216DAVISVP2,2013-08-17 01:34:00,
2013-08-16 21:39:00,64.9,59.0,30.09,ESE,112,0.0,1.0,81,0.00,,,0.00,WUHU216DAVISVP2,2013-08-17 01:39:00,
2013-08-16 21:44:00,64.7,58.8,30.09,ESE,112,0.0,1.0,81,0.00,,,0.00,WUHU216DAVISVP2,2013-08-17 01:44:00,
2013-08-16 21:49:00,64.4,58.8,30.09,ESE,111,0.0,1.0,82,0.00,,,0.00,WUHU216DAVISVP2,2013-08-17 01:49:00,
2013-08-16 21:54:00,64.0,58.8,30.10,ESE,111,0.0,1.0,83,0.00,,,0.00,WUHU216DAVISVP2,2013-08-17 01:54:00,
2013-08-16 21:59:00,63.6,58.4,30.10,ESE,112,0.0,0.0,83,0.00,,,0.00,WUHU216DAVISVP2,2013-08-17 01:59:00,
2013-08-16 22:04:00,63.1,58.2,30.10,ESE,112,0.0,0.0,84,0.00,,,0.00,WUHU216DAVISVP2,2013-08-17 02:04:00,
2013-08-16 22:09:00,62.6,58.0,30.10,ESE,111,0.0,0.0,85,0.00,,,0.00,WUHU216DAVISVP2,2013-08-17 02:09:00,
2013-08-16 22:14:00,62.3,58.1,30.10,ESE,112,0.0,0.0,86,0.00,,,0.00,WUHU216DAVISVP2,2013-08-17 02:14:00,
2013-08-16 22:19:00,62.0,57.8,30.10,ESE,111,0.0,0.0,86,0.00,,,0.00,WUHU216DAVISVP2,2013-08-17 02:19:00,
2013-08-16 22:24:00,61.5,57.6,30.10,ESE,111,0.0,0.0,87,0.00,,,0.00,WUHU216DAVISVP2,2013-08-17 02:24:00,
2013-08-16 22:29:00,61.3,58.0,30.10,ESE,111,0.0,0.0,89,0.00,,,0.00,WUHU216DAVISVP2,2013-08-17 02:29:00,
2013-08-16 22:34:00,61.1,57.8,30.10,ESE,112,0.0,0.0,89,0.00,,,0.00,WUHU216DAVISVP2,2013-08-17 02:34:00,
2013-08-16 22:39:00,60.7,57.4,30.10,ESE,112,0.0,0.0,89,0.00,,,0.00,WUHU216DAVISVP2,2013-08-17 02:39:00,
2013-08-16 22:44:00,60.5,57.5,30.10,ESE,111,0.0,0.0,90,0.00,,,0.00,WUHU216DAVISVP2,2013-08-17 02:44:00,
2013-08-16 22:49:00,60.0,56.7,30.10,ESE,111,0.0,0.0,89,0.00,,,0.00,WUHU216DAVISVP2,2013-08-17 02:49:00,
2013-08-16 22:54:00,59.6,57.0,30.10,ESE,111,0.0,0.0,91,0.00,,,0.00,WUHU216DAVISVP2,2013-08-17 02:54:00,
2013-08-16 22:59:00,59.6,56.9,30.10,ESE,111,0.0,0.0,91,0.00,,,0.00,WUHU216DAVISVP2,2013-08-17 02:59:00,
2013-08-16 23:04:00,59.4,57.0,30.10,ESE,111,0.0,0.0,92,0.00,,,0.00,WUHU216DAVISVP2,2013-08-17 03:04:00,
2013-08-16 23:09:00,59.2,56.8,30.10,ESE,111,0.0,0.0,92,0.00,,,0.00,WUHU216DAVISVP2,2013-08-17 03:09:00,
2013-08-16 23:14:00,59.0,56.9,30.10,ESE,112,0.0,0.0,93,0.00,,,0.00,WUHU216DAVISVP2,2013-08-17 03:14:00,
2013-08-16 23:19:00,58.8,56.5,30.10,ESE,111,0.0,0.0,92,0.00,,,0.00,WUHU216DAVISVP2,2013-08-17 03:19:00,
2013-08-16 23:24:00,58.7,56.6,30.10,ESE,111,0.0,0.0,93,0.00,,,0.00,WUHU216DAVISVP2,2013-08-17 03:24:00,
2013-08-16 23:29:00,58.7,57.0,30.10,ESE,111,0.0,0.0,94,0.00,,,0.00,WUHU216DAVISVP2,2013-08-17 03:29:00,
2013-08-16 23:34:00,58.7,57.0,30.10,ESE,111,0.0,0.0,94,0.00,,,0.00,WUHU216DAVISVP2,2013-08-17 03:34:00,
2013-08-16 23:39:00,58.7,56.9,30.10,ESE,111,0.0,0.0,94,0.00,,,0.00,WUHU216DAVISVP2,2013-08-17 03:39:00,
2013-08-16 23:44:00,58.8,57.3,30.11,ESE,111,0.0,0.0,95,0.00,,,0.00,WUHU216DAVISVP2,2013-08-17 03:44:00,
2013-08-16 23:49:00,58.8,57.4,30.11,ESE,112,0.0,0.0,95,0.00,,,0.00,WUHU216DAVISVP2,2013-08-17 03:49:00,
2013-08-16 23:54:00,58.7,57.2,30.11,ESE,111,0.0,0.0,95,0.00,,,0.00,WUHU216DAVISVP2,2013-08-17 03:54:00,
2013-08-16 23:59:00,58.3,56.8,30.11,ESE,111,0.0,0.0,95,0.00,,,0.00,WUHU216DAVISVP2,2013-08-17 03:59:00,